User: anonymous   Login
Location: Unspecified
(0.0000°N, 0.0000°E)
Time: 02:19:29
(UTC+02:00)
Language:

ARIANE 5 R/B - Orbit

View from above orbital plane
View from above orbital plane
View from above satellite
View from above satellite

Ground track
Ground track

The orbit data is extracted from the following two-line orbital elements,

1 28379U 04027B   17268.16340001 -.00000209  00000-0  85438-3 0  9994
2 28379   7.1565 297.3279 7287041 136.5354 349.4329  2.07930964100229
Epoch (UTC): 25 September 2017 03:55:17
Eccentricity: 0.7287041
inclination: 7.1565°
perigee height: 656 km
apogee height: 38445 km
right ascension of ascending node: 297.3279°
argument of perigee: 136.5354°
revolutions per day: 2.07930964
mean anomaly at epoch: 349.4329°
orbit number at epoch: 10022

The dashed part of the orbit path shows where the satellite is in the earth's shadow,  

DLR